| time (UTC) | temp F | wind direction | speed MPH | gust MPH | rain 1hr in | rain 24hr in | rain mn in | humidity % | barometer mb |
| 20260510061556 | 62 | 239 | 0.0 | 3.0 | 0.00 | 0.00 | 0.00 | 83 | 1014.0 |
| 20260510060055 | 62 | 240 | 0.0 | 3.0 | 0.00 | 0.00 | 0.00 | 83 | 1013.8 |
| 20260510054551 | 62 | 242 | 1.0 | 4.0 | 0.00 | 0.00 | 0.00 | 82 | 1013.8 |
| 20260510053051 | 62 | 243 | 1.0 | 3.0 | 0.00 | 0.00 | 0.00 | 82 | 1013.9 |
| 20260510051550 | 62 | 244 | 0.0 | 2.0 | 0.00 | 0.00 | 0.00 | 82 | 1013.8 |
| 20260510050052 | 62 | 244 | 1.0 | 4.0 | 0.00 | 0.00 | 0.00 | 82 | 1013.8 |
| 20260510044556 | 62 | 0 | 2.0 | 4.0 | 0.00 | 0.00 | 0.00 | 82 | 1013.8 |
| 20260510043102 | 61 | 241 | 0.0 | 2.0 | 0.00 | 0.00 | 0.00 | 83 | 1013.8 |
| 20260510041551 | 61 | 240 | 1.0 | 3.0 | 0.00 | 0.00 | 0.00 | 83 | 1013.7 |
| 20260510040100 | 61 | 0 | 1.0 | 3.0 | 0.00 | 0.00 | 0.00 | 82 | 1013.5 |
| 20260510034557 | 61 | 242 | 2.0 | 4.0 | 0.00 | 0.00 | 0.00 | 83 | 1013.6 |
| 20260510033115 | 61 | 240 | 1.0 | 4.0 | 0.00 | 0.00 | 0.00 | 82 | 1013.4 |
| 20260510031558 | 62 | 244 | 1.0 | 4.0 | 0.00 | 0.00 | 0.00 | 82 | 1013.1 |
| 20260510030059 | 62 | 242 | 2.0 | 5.0 | 0.00 | 0.00 | 0.00 | 82 | 1013.0 |
| 20260510024552 | 62 | 248 | 1.0 | 5.0 | 0.00 | 0.00 | 0.00 | 82 | 1012.9 |
| 20260510023049 | 62 | 229 | 2.0 | 6.0 | 0.00 | 0.00 | 0.00 | 82 | 1012.9 |
| 20260510021550 | 62 | 239 | 2.0 | 5.0 | 0.00 | 0.00 | 0.00 | 81 | 1012.8 |
| 20260510020053 | 63 | 250 | 1.0 | 8.0 | 0.00 | 0.00 | 0.00 | 81 | 1012.6 |
| 20260510014555 | 64 | 259 | 3.0 | 8.0 | 0.00 | 0.00 | 0.00 | 80 | 1012.7 |
| 20260510013055 | 65 | 238 | 3.0 | 9.0 | 0.00 | 0.00 | 0.00 | 78 | 1012.7 |
| 20260510011552 | 67 | 242 | 2.0 | 8.0 | 0.00 | 0.00 | 0.00 | 76 | 1012.7 |
| 20260510010059 | 67 | 235 | 2.0 | 10.0 | 0.00 | 0.00 | 0.00 | 76 | 1012.7 |
| 20260510004610 | 67 | 252 | 3.0 | 10.0 | 0.00 | 0.00 | 0.00 | 75 | 1012.8 |
| 20260510003057 | 66 | 290 | 5.0 | 11.0 | 0.00 | 0.00 | 0.00 | 76 | 1012.9 |
| 20260510001553 | 67 | 259 | 4.0 | 12.0 | 0.00 | 0.00 | 0.00 | 75 | 1012.8 |
| 20260510000104 | 67 | 360 | 6.0 | 11.0 | 0.00 | 0.00 | 0.00 | 76 | 1012.5 |
| 20260509234559 | 68 | 211 | 4.0 | 10.0 | 0.00 | 0.00 | 0.00 | 74 | 1012.3 |
| 20260509233052 | 69 | 252 | 3.0 | 12.0 | 0.00 | 0.00 | 0.00 | 73 | 1012.5 |
| 20260509231554 | 68 | 238 | 5.0 | 10.0 | 0.00 | 0.00 | 0.00 | 73 | 1012.6 |
| 20260509230050 | 68 | 261 | 5.0 | 12.0 | 0.00 | 0.00 | 0.00 | 73 | 1012.5 |
| 20260509224555 | 68 | 225 | 6.0 | 11.0 | 0.00 | 0.00 | 0.00 | 74 | 1012.8 |
| 20260509223101 | 69 | 228 | 3.0 | 11.0 | 0.00 | 0.00 | 0.00 | 72 | 1012.8 |
| 20260509221552 | 70 | 182 | 5.0 | 12.0 | 0.00 | 0.00 | 0.00 | 71 | 1012.9 |
| 20260509220053 | 68 | 250 | 4.0 | 10.0 | 0.00 | 0.00 | 0.00 | 73 | 1013.0 |
| 20260509214602 | 68 | 240 | 4.0 | 14.0 | 0.00 | 0.00 | 0.00 | 73 | 1013.2 |
| 20260509213055 | 69 | 234 | 5.0 | 11.0 | 0.00 | 0.00 | 0.00 | 73 | 1013.2 |
| 20260509211554 | 69 | 252 | 6.0 | 13.0 | 0.00 | 0.00 | 0.00 | 73 | 1013.4 |
| 20260509210106 | 68 | 230 | 6.0 | 13.0 | 0.00 | 0.00 | 0.00 | 75 | 1013.6 |
| 20260509204558 | 68 | 245 | 5.0 | 12.0 | 0.00 | 0.00 | 0.00 | 74 | 1013.6 |
| 20260509203059 | 69 | 234 | 5.0 | 11.0 | 0.00 | 0.00 | 0.00 | 74 | 1013.8 |
| 20260509201608 | 69 | 249 | 6.0 | 12.0 | 0.00 | 0.00 | 0.00 | 73 | 1013.9 |
| 20260509200107 | 68 | 246 | 5.0 | 12.0 | 0.00 | 0.00 | 0.00 | 74 | 1013.9 |
| 20260509194554 | 68 | 360 | 5.0 | 12.0 | 0.00 | 0.00 | 0.00 | 75 | 1013.8 |
| 20260509193057 | 68 | 236 | 5.0 | 13.0 | 0.00 | 0.00 | 0.00 | 74 | 1013.8 |
| 20260509191553 | 69 | 198 | 6.0 | 13.0 | 0.00 | 0.00 | 0.00 | 75 | 1013.8 |
| 20260509190053 | 69 | 222 | 5.0 | 10.0 | 0.00 | 0.00 | 0.00 | 74 | 1013.9 |
| 20260509184602 | 69 | 217 | 5.0 | 10.0 | 0.00 | 0.00 | 0.00 | 74 | 1013.9 |
| 20260509183057 | 69 | 233 | 4.0 | 9.0 | 0.00 | 0.00 | 0.00 | 74 | 1014.0 |
| 20260509181609 | 69 | 211 | 5.0 | 11.0 | 0.00 | 0.00 | 0.00 | 75 | 1013.9 |
| 20260509180051 | 69 | 232 | 4.0 | 9.0 | 0.00 | 0.00 | 0.00 | 74 | 1013.9 |
| 20260509174550 | 69 | 233 | 3.0 | 9.0 | 0.00 | 0.00 | 0.00 | 75 | 1014.1 |
| 20260509173102 | 69 | 234 | 3.0 | 9.0 | 0.00 | 0.00 | 0.00 | 73 | 1014.1 |
| 20260509171556 | 70 | 188 | 3.0 | 9.0 | 0.00 | 0.00 | 0.00 | 74 | 1014.2 |
| 20260509170048 | 68 | 227 | 2.0 | 8.0 | 0.00 | 0.00 | 0.00 | 75 | 1014.0 |
| 20260509164551 | 66 | 253 | 3.0 | 7.0 | 0.00 | 0.00 | 0.00 | 78 | 1014.1 |
| 20260509163050 | 65 | 182 | 1.0 | 5.0 | 0.00 | 0.00 | 0.00 | 80 | 1014.2 |
| 20260509161549 | 63 | 254 | 2.0 | 6.0 | 0.00 | 0.00 | 0.00 | 81 | 1014.3 |
| 20260509160049 | 63 | 217 | 1.0 | 4.0 | 0.00 | 0.00 | 0.00 | 82 | 1014.2 |
| 20260509154552 | 63 | 211 | 2.0 | 6.0 | 0.00 | 0.00 | 0.00 | 83 | 1014.2 |
| 20260509153054 | 63 | 163 | 3.0 | 5.0 | 0.00 | 0.00 | 0.00 | 82 | 1014.2 |
| 20260509151604 | 63 | 191 | 1.0 | 4.0 | 0.00 | 0.00 | 0.00 | 83 | 1014.2 |
| 20260509150050 | 62 | 167 | 1.0 | 6.0 | 0.00 | 0.00 | 0.00 | 84 | 1014.2 |
| 20260509144607 | 62 | 167 | 1.0 | 4.0 | 0.00 | 0.00 | 0.00 | 84 | 1014.1 |
| 20260509143119 | 62 | 0 | 0.0 | 4.0 | 0.00 | 0.00 | 0.00 | 85 | 1013.9 |
| 20260509141554 | 62 | 166 | 2.0 | 5.0 | 0.00 | 0.00 | 0.00 | 85 | 1014.1 |
| 20260509134609 | 61 | 153 | 1.0 | 6.0 | 0.00 | 0.00 | 0.00 | 85 | 1014.0 |
| 20260509133051 | 61 | 151 | 2.0 | 7.0 | 0.00 | 0.00 | 0.00 | 85 | 1013.8 |
| 20260509131551 | 61 | 156 | 2.0 | 6.0 | 0.00 | 0.00 | 0.00 | 85 | 1013.8 |
| 20260509130057 | 61 | 155 | 2.0 | 5.0 | 0.00 | 0.00 | 0.00 | 85 | 1013.8 |
| 20260509124552 | 61 | 163 | 3.0 | 7.0 | 0.00 | 0.00 | 0.00 | 85 | 1013.8 |
| 20260509123109 | 61 | 159 | 3.0 | 7.0 | 0.00 | 0.00 | 0.00 | 86 | 1013.7 |
| 20260509121610 | 61 | 169 | 1.0 | 4.0 | 0.00 | 0.00 | 0.00 | 86 | 1013.7 |
| 20260509120112 | 61 | 170 | 1.0 | 4.0 | 0.00 | 0.00 | 0.00 | 86 | 1013.7 |
| 20260509114605 | 61 | 170 | 3.0 | 5.0 | 0.00 | 0.00 | 0.00 | 85 | 1013.8 |
| 20260509113106 | 61 | 0 | 1.0 | 6.0 | 0.00 | 0.00 | 0.00 | 86 | 1013.8 |
| 20260509111608 | 61 | 155 | 2.0 | 6.0 | 0.00 | 0.00 | 0.00 | 85 | 1013.7 |
| 20260509104553 | 61 | 136 | 1.0 | 3.0 | 0.00 | 0.00 | 0.00 | 85 | 1013.7 |
| 20260509103102 | 61 | 135 | 1.0 | 2.0 | 0.00 | 0.00 | 0.00 | 85 | 1013.9 |
| 20260509101618 | 61 | 135 | 1.0 | 3.0 | 0.00 | 0.00 | 0.00 | 86 | 1014.0 |
| 20260509100051 | 61 | 134 | 0.0 | 5.0 | 0.00 | 0.00 | 0.00 | 85 | 1014.0 |
| 20260509094548 | 61 | 146 | 3.0 | 7.0 | 0.00 | 0.00 | 0.00 | 85 | 1014.1 |
| 20260509093104 | 61 | 154 | 1.0 | 5.0 | 0.00 | 0.00 | 0.00 | 85 | 1014.1 |
| 20260509091553 | 61 | 155 | 2.0 | 6.0 | 0.00 | 0.00 | 0.00 | 85 | 1014.1 |
| 20260509084552 | 61 | 0 | 0.0 | 2.0 | 0.00 | 0.00 | 0.00 | 85 | 1014.3 |
| 20260509083052 | 61 | 173 | 2.0 | 5.0 | 0.00 | 0.00 | 0.00 | 85 | 1014.5 |
| 20260509081606 | 61 | 174 | 0.0 | 3.0 | 0.00 | 0.00 | 0.00 | 85 | 1014.5 |
| 20260509080056 | 62 | 0 | 0.0 | 3.0 | 0.00 | 0.00 | 0.00 | 85 | 1014.6 |
| 20260509074558 | 62 | 174 | 1.0 | 5.0 | 0.00 | 0.00 | 0.00 | 85 | 1014.9 |
| 20260509073056 | 61 | 175 | 2.0 | 5.0 | 0.00 | 0.00 | 0.00 | 85 | 1014.9 |
| 20260509071558 | 61 | 163 | 4.0 | 9.0 | 0.00 | 0.00 | 0.00 | 85 | 1015.0 |
| 20260509070052 | 61 | 109 | 3.0 | 6.0 | 0.00 | 0.00 | 0.00 | 85 | 1015.1 |
| 20260509064605 | 61 | 128 | 1.0 | 5.0 | 0.00 | 0.00 | 0.00 | 84 | 1015.2 |
| 20260509063048 | 62 | 0 | 1.0 | 4.0 | 0.00 | 0.00 | 0.00 | 84 | 1015.1 |